Sign-in with your pilot id or email, or register

ICAO: UTDD Name / Country: Dushanbe Airport / Tajikistan
Latitude: 38.5433 Longitude: 68.825
Total Arrivals:
Strict Standards: Non-static method AirportData::getarrflights() should not be called statically, assuming $this from incompatible context in /var/www/customers/vh-7192/web/home/phpvms/core/templates/airport_info.tpl on line 18
1
Total Departures:
Strict Standards: Non-static method AirportData::getdeptflights() should not be called statically, assuming $this from incompatible context in /var/www/customers/vh-7192/web/home/phpvms/core/templates/airport_info.tpl on line 21
1
Latest Arrival: MTA5PM (OIIE-UTDD) Tibor Berces Latest Departure: MTA003 (UTDD-UAAA) Tibor Berces
Metar: UTDD 241430Z 02002MPS 2300 BR FU NSC M02/M04 Q1027 R09/29//50 NOSIG RMK QFE701/0935
More info

Charts for UTDD


NOTAM


Warning: file_get_contents(http://api.vateud.net/notams/UTDD.json): failed to open stream: HTTP request failed! HTTP/1.1 404 Not Found in /var/www/customers/vh-7192/web/home/phpvms/core/common/NOTAMSData.class.php on line 18

Warning: Invalid argument supplied for foreach() in /var/www/customers/vh-7192/web/home/phpvms/core/common/NOTAMSData.class.php on line 22

Dushanbe Airport